Regional Weather Roundup
Issued by NWS Cleveland, OH

Home | Current Version | Previous Version | Graphics & Text | Print | Product List | Glossary On
Versions: 1 2 3 4 5 6 7 8 9 10 11 12 13 14 15 16 17 18 19 20 21 22 23 24 25 26 27 28 29 30 31 32 33 34 35 36 37 38 39 40 41 42 43 44 45 46 47 48 49 50
408
ASUS41 KCLE 060012
RWRCLE
OHIO REGIONAL WEATHER ROUNDUP
NATIONAL WEATHER SERVICE WILMINGTON, OH
700 PM EST MON DEC 05 2016

NOTE: "FAIR" INDICATES FEW OR NO CLOUDS BELOW 12,000 FEET WITH NO
SIGNIFICANT WEATHER AND/OR OBSTRUCTIONS TO VISIBILITY.

OHZ001>008-015>018-024>027-034-035-043-044-060100-
   NORTHWEST OHIO

CITY           SKY/WX    TMP DP  RH WIND       PRES   REMARKS
DEFIANCE       FAIR      30  26  85 CALM      30.06S
FINDLAY        FAIR      33  27  78 E5        30.06R WCI  29
TOLEDO EXPRESS FAIR      31  29  92 CALM      30.07S
TOLEDO EXEC    FAIR      36  29  75 S3        30.08F
LIMA           FAIR      31  29  92 E5        30.04S WCI  26
$$

OHZ009>014-019>023-028>033-038-089-060100-
   NORTHEAST OHIO

CITY           SKY/WX    TMP DP  RH WIND       PRES   REMARKS
CLE-HOPKINS    FAIR      37  27  67 CALM      30.11F
CLE-LAKEFRONT  FAIR      37  27  67 SW6       30.08F
CUY CO. ARPT   MOCLDY    34  30  86 S6        30.09F WCI  29
LORAIN-ELYRIA  FAIR      32  26  78 CALM      30.08F
ASHTABULA      FAIR      34  29  82 CALM      30.10S
AKRON-CANTON   FAIR      36  27  69 CALM      30.08S
WOOSTER        FAIR      30  26  85 CALM      30.08S
MANSFIELD      FAIR      30  26  85 SE6       30.07S WCI  24
YOUNGSTOWN     MOCLDY    33  27  78 CALM      30.08S
$$

OHZ042-051>053-060>062-070>072-077>081-060100-
  SOUTHWEST OHIO

CITY           SKY/WX    TMP DP  RH WIND       PRES   REMARKS
CINC-COVINGTON CLOUDY    40  34  79 E8        30.00F
CINC-LUNKEN    FAIR      40  35  83 NE3       30.03F
HAMILTON       FAIR      37  31  78 E7        30.04F
DAYTON         MOCLDY    35  30  82 E8        30.04F WCI  29
WRIGHT-PAT AFB FAIR      35  32  89 E6        30.04F
DAYTON GENERAL FAIR      37  31  78 E6        30.03F
WILMINGTON     FAIR      36  32  85 E5        30.04S
$$

OHZ036-037-039>041-045>050-054>059-063>069-073>076-082>088-060100-
  CENTRAL AND SOUTHEAST OHIO

CITY           SKY/WX    TMP DP  RH WIND       PRES   REMARKS
COLUMBUS       MOCLDY    35  31  85 E3        30.06S
OSU AIRPORT    FAIR      33  29  85 E6        30.05F WCI  28
BOLTON FIELD   FAIR      34  30  86 SE3       30.06S
RICKENBACK AFB FAIR      34  31  87 SE3       30.06S
NEWARK         FAIR      34  28  79 CALM      30.06F
MARION         FAIR      27  24  89 E6        30.07S WCI  20
LANCASTER      FAIR      34  30  85 E3        30.07S
ZANESVILLE     FAIR      36  29  75 NE5       30.07F
NEW PHILLY     FAIR      32  29  88 N3        30.10S
$$




USA.gov is the U.S. government's official web portal to all federal, state and local government web resources and services.